COSMOS 1275 DEB, 42233

Orbit data source: Space-Track

COSMOS 1275 DEB, 42233 is space debris in LEO originally from a launch on Thu, 04 Jun 1981 UTC launched from the Plesetsk Missile And Space Complex (PKMTR). Debris objects in space refer to the collection of defunct objects orbiting the Earth. Examples of debris include non-operational satellites, rocket bodies, and fragments generated from explosions, collisions, or faulty payload assembly.

Loading next visibility...
Identifier
42233, 1981-053UZ
Orbit
LEO
Country
Flag of CISCIS
Related business
Manufacturer
Unknown
Mission
Spacecraft
Bus & Motor
Unknown
Mass
Unknown
Launch date (UTC)
1981-06-04 (45 years ago)
Launch vehicle
Unknown
Launch site
Plesetsk Missile And Space Complex (PKMTR)
Object type
Payload
Rocket body
Debris
Shape & HBR
Unknown shape, 0.1 m
Radar Cross Section
Medium (>0.1 m² and <1 m²)

Expand to show TLE details & history
Last TLE update: 5 days ago

TLE from 5 days ago
0 COSMOS 1275 DEB
1 42233U 81053UZ  26168.94750719  .00000180  00000-0  18369-3 0  9995
2 42233  83.0435 355.1556 0134272 142.6234 218.4353 13.67210110580281
Epoch: 2026-06-17T22:44Z
TLE epoch observation values (Epoch: 2026-06-17T22:44:24.621Z)
Latitude
0.00001°
Longitude
107.85514°
Altitude
1,090.72 km
Speed
7.268 km/s
True Right ascension
23h 40m 37s
True Declination
0° 00' 00"
Sunlit
Object was in daylight at epoch
Visualization orbit readout
Latitude
Unknown
Longitude
Unknown
Altitude
Unknown
Speed
Unknown
Apparent Right ascension
Unknown
Apparent Declination
Unknown
Sunlit
N/A
Visualization observer readout
Local Sidereal Time
23:19:40
Azimuth
Unknown
Elevation
Unknown
Doppler factor
Unknown
Orbital elements
Apogee altitude
1,105.918 km
Perigee altitude
907.601 km
Semi-major axis
7,384.896 km
Eccentricity
0.01343
Inclination
83.0435°
RAAN
355.1556°
Arg. of periapsis
142.6234°
True anomaly
217.49129°
Mean anomaly
218.4353°
Eccentric anomaly
217.96206°
Mean motion
3.42 °/min
Orbital period
105.26 mins
BSTAR
0.00018369
Loading maneuver chart data...
Computing Atmospheric mass density...

Documentation

Showing up to 5 results
|